Location: Kumla
(59.1265°N, 15.1401°E)
Time: 08:28:36
(UTC+01:00)

Vanguard 2 Rocket - Pass Details

Date: 10 December 2023
Orbit: 554 x 3309 km, 32.9° (Epoch: 26 February)

Event Time Altitude Azimuth Distance (km) Brightness Sun altitude
Rises 15:46:08 0° 244° (WSW) 6,439 13.3 -5.0°
Reaches altitude 10° 15:51:00 10° 234° (SW) 5,743 12.9 -5.5°
Maximum altitude 16:05:00 28° 186° (S) 4,869 11.1 -7.0°
Drops below altitude 10° 16:19:48 10° 137° (SE) 6,063 11.0 -8.6°
Sets 16:25:10 0° 127° (SE) 6,843 11.1 -9.2°
